Temperature
2 3 2 2 3 2 2 2 2 3 3 5 5 4 4 5 5 5 5 5 5 5 5 5 5 5 5 5 5 4 4 4 4 4 4 4 4 4 4 4 4 4 4 4
2 2 2 2 3 3 3 3 3 3 3 4 4 5 4 5 5 5 5 5 5 4 4 4 4 4 4 4 4 4 4 3 3 3 3 3 3 3 3 3 3 3 4 3
1 2 2 2 3 3 3 3 3 3 4 4 3 4 4 4 4 4 4 4 4 4 4 4 3 3 4 3 3 3 3 3 3 3 3 3 3 3 3 3 3 3 3 3
0 1 1 3 3 3 3 3 3 3 3 3 3 4 4 4 4 4 3 3 3 3 3 3 3 3 3 3 3 3 3 2 2 2 2 2 3 3 3 3 3 2 3 3
-0 0 1 2 3 3 2 2 3 3 3 3 3 3 3 3 3 3 3 3 3 3 2 2 2 3 3 3 3 2 2 2 2 2 2 2 2 3 3 2 2 2 2 2
-0 0 1 2 3 3 3 1 2 2 2 2 2 1 1 3 3 2 2 2 2 2 2 2 2 2 2 2 2 2 2 2 2 2 2 2 2 2 2 2 2 2 2 2
-0 -0 0 2 2 3 2 1 2 3 2 2 1 1 2 2 2 2 2 1 1 1 1 1 1 1 1 1 1 1 1 1 1 1 1 1 1 1 1 1 1 1 1 2
-1 -0 0 1 2 1 1 2 3 2 2 2 2 2 2 2 1 1 1 1 1 1 1 1 1 1 1 1 1 1 1 1 1 1 1 1 1 1 1 1 1 1 1 1
-1 0 1 1 2 2 3 2 2 2 2 2 1 1 1 1 1 0 0 0 0 0 0 0 0 0 0 0 0 0 0 0 1 1 1 1 1 1 1 0 -0 0 0 0
-1 -1 0 1 2 2 2 2 2 2 2 1 1 0 0 0 -0 -0 -0 -0 -1 -1 -0 -0 -0 -0 -0 -0 -0 -0 -0 0 0 0 0 0 0 0 0 -0 -0 -0 -0 -0
-1 -1 -0 1 1 1 1 1 1 1 1 1 0 -0 -0 -1 -1 -1 -1 -1 -1 -1 -1 -1 -1 -1 -1 -1 -1 -1 -0 -0 -0 -0 -0 -0 -0 -1 -1 -0 -1 -0 -0 -0
-1 -0 -1 -0 1 1 1 1 0 0 0 -0 -0 -1 -1 -1 -1 -1 -2 -2 -2 -2 -2 -1 -1 -1 -1 -1 -1 -1 -1 -1 -1 -1 -1 -1 -1 -1 -1 -1 -1 -0 -0 -0
0 0 0 -0 -0 -0 -0 -0 -1 -1 -1 -1 -1 -1 -2 -2 -2 -2 -2 -2 -2 -2 -2 -2 -2 -2 -2 -2 -1 -1 -2 -2 -1 -1 -1 -1 -1 -1 -1 -1 -0 -0 -0 -0
-1 -0 -1 -1 -1 -1 -1 -1 -1 -1 -1 -2 -2 -2 -2 -2 -2 -3 -3 -3 -3 -3 -3 -2 -2 -2 -2 -2 -2 -2 -2 -2 -2 -2 -2 -2 -2 -2 -2 -2 -1 -1 -1 -1
-1 -1 -2 -2 -2 -2 -2 -2 -2 -2 -2 -2 -2 -3 -3 -3 -3 -3 -3 -3 -3 -3 -3 -3 -3 -2 -2 -2 -2 -2 -2 -2 -2 -2 -2 -2 -2 -2 -2 -2 -2 -2 -1 -1
-2 -2 -2 -2 -2 -2 -2 -2 -3 -3 -3 -3 -3 -3 -4 -4 -4 -4 -4 -4 -4 -4 -3 -3 -3 -3 -3 -3 -3 -3 -2 -2 -2 -3 -2 -2 -2 -2 -2 -2 -2 -2 -2 -2
-3 -3 -3 -3 -3 -3 -3 -3 -4 -4 -4 -4 -4 -4 -4 -4 -4 -4 -4 -4 -4 -4 -4 -4 -4 -3 -3 -3 -3 -3 -3 -3 -3 -3 -3 -3 -2 -2 -3 -3 -3 -2 -2 -2
-4 -4 -4 -4 -4 -4 -4 -4 -4 -4 -4 -5 -5 -5 -5 -5 -5 -5 -5 -4 -4 -4 -4 -4 -4 -4 -4 -4 -4 -4 -3 -3 -3 -3 -3 -3 -3 -3 -3 -3 -3 -3 -3 -2
-4 -5 -5 -5 -5 -5 -5 -5 -5 -5 -5 -5 -5 -5 -5 -5 -6 -5 -5 -5 -5 -5 -5 -5 -5 -4 -4 -4 -4 -4 -4 -4 -4 -4 -3 -3 -3 -4 -4 -4 -3 -3 -3 -3
-5 -5 -5 -5 -5 -5 -5 -6 -6 -6 -6 -6 -6 -6 -6 -6 -6 -6 -6 -6 -6 -6 -5 -5 -5 -5 -5 -5 -5 -4 -4 -4 -4 -4 -4 -4 -4 -4 -4 -4 -4 -4 -4 -4
-6 -6 -6 -6 -6 -6 -6 -6 -6 -6 -6 -7 -7 -7 -7 -6 -6 -6 -6 -6 -6 -6 -6 -6 -6 -6 -5 -5 -5 -5 -5 -5 -5 -5 -5 -5 -5 -5 -5 -5 -5 -4 -4 -4
-6 -6 -6 -6 -6 -7 -7 -7 -7 -7 -7 -7 -7 -7 -7 -7 -7 -7 -7 -7 -7 -7 -7 -6 -6 -6 -6 -6 -6 -6 -5 -5 -5 -5 -5 -5 -5 -5 -5 -5 -5 -5 -5 -4
-7 -7 -7 -7 -7 -7 -7 -7 -7 -7 -7 -7 -7 -7 -7 -7 -7 -7 -7 -7 -7 -7 -7 -7 -7 -7 -7 -6 -6 -6 -6 -6 -6 -6 -6 -6 -6 -6 -6 -6 -5 -5 -5 -5
-7 -7 -7 -8 -8 -8 -8 -8 -8 -8 -8 -8 -8 -8 -8 -8 -7 -7 -7 -7 -7 -7 -7 -7 -7 -7 -7 -7 -7 -6 -6 -6 -6 -6 -6 -6 -6 -6 -6 -6 -6 -5 -5 -5
-8 -8 -8 -8 -8 -8 -8 -9 -8 -8 -8 -8 -8 -8 -8 -8 -8 -8 -8 -7 -7 -7 -7 -7 -7 -7 -7 -7 -7 -7 -6 -6 -6 -6 -6 -6 -6 -6 -6 -6 -6 -5 -5 -5
-8 -8 -9 -9 -9 -9 -9 -9 -9 -9 -9 -9 -8 -8 -8 -8 -8 -8 -8 -8 -8 -8 -7 -7 -7 -7 -7 -7 -7 -7 -7 -7 -7 -6 -6 -6 -6 -6 -6 -6 -6 -5 -5 -5
-9 -9 -9 -9 -9 -9 -9 -9 -9 -9 -9 -9 -9 -8 -8 -8 -8 -8 -8 -8 -8 -8 -8 -8 -8 -7 -7 -7 -7 -7 -7 -7 -7 -7 -7 -6 -6 -6 -6 -6 -6 -6 -5 -5
Wind_Speed
7 6 5 7 9 9 10 10 10 10 12 14 11 7 6 6 5 5 5 5 4 4 4 5 5 5 5 5 5 5 5 5 6 6 5 5 5 5 5 5 6 5 5 6
6 7 7 9 12 13 13 12 13 13 14 12 9 5 5 5 5 5 6 5 4 4 4 5 5 5 5 6 5 4 5 5 6 5 5 5 5 5 5 5 5 5 5 6
5 4 3 9 11 12 8 8 9 13 13 7 5 5 6 5 4 4 4 4 4 4 5 5 5 5 5 6 5 5 5 5 6 5 5 5 5 5 5 5 5 6 6 5
3 1 8 8 4 8 8 8 8 6 6 5 6 5 3 3 2 3 4 4 4 4 5 5 5 5 5 5 4 4 5 6 6 5 5 5 5 6 6 5 5 6 5 5
3 4 7 7 3 5 6 6 6 7 6 4 2 2 3 2 0 1 3 4 4 4 4 5 5 5 5 5 5 5 6 6 6 5 5 6 6 6 6 5 5 5 5 5
4 4 7 6 4 2 3 4 3 3 4 3 1 2 5 3 2 3 4 3 4 4 4 5 6 5 4 5 5 6 7 7 6 5 5 5 6 6 5 4 4 4 4 4
7 6 7 6 4 2 3 5 3 2 3 3 3 5 5 3 2 3 3 4 4 4 5 5 5 4 4 5 6 7 6 6 6 5 5 5 5 4 4 3 3 3 4 4
5 6 7 3 2 4 5 3 2 2 2 2 3 3 3 2 3 3 4 5 5 5 6 6 5 4 5 7 7 6 6 6 5 5 5 4 3 3 3 2 2 2 2 3
6 6 3 2 3 4 3 2 2 2 2 1 1 2 3 3 3 4 5 5 5 5 7 7 6 4 5 7 6 6 5 6 5 5 4 3 3 3 2 1 1 2 2 2
4 7 6 6 5 4 2 3 3 2 2 1 2 3 3 3 4 5 5 5 5 6 6 7 7 6 6 6 5 4 5 6 5 4 4 3 2 2 1 1 1 1 2 2
6 7 5 4 3 3 2 1 2 1 1 2 2 3 3 4 5 5 5 5 5 5 6 8 7 7 6 5 4 4 5 4 4 3 2 2 2 2 2 2 2 2 2 2
8 7 5 5 3 2 1 2 2 1 2 2 2 3 4 4 4 5 5 5 6 6 7 8 8 7 6 5 4 3 4 4 3 2 2 1 2 3 4 3 5 5 4 3
6 5 4 3 3 2 2 2 2 2 2 2 2 2 3 4 4 5 5 6 6 7 7 7 7 7 6 5 4 3 4 4 3 2 2 1 1 1 3 5 6 5 4 4
3 2 2 2 3 2 2 2 2 2 2 1 2 3 3 4 5 5 6 6 7 7 7 7 6 7 6 5 4 4 4 4 3 2 2 1 1 1 1 2 3 4 5 5
3 2 3 2 1 2 2 1 2 2 3 3 3 3 4 4 5 6 6 6 6 6 6 6 6 7 6 5 4 4 3 2 2 2 1 1 1 1 1 1 2 2 3 4
3 1 0 0 1 2 2 2 2 3 3 4 4 4 4 5 5 6 6 5 5 6 6 6 7 7 6 4 4 3 3 5 4 2 1 1 1 1 1 1 2 2 2 3
1 2 1 2 3 3 2 3 3 3 3 4 4 5 5 5 5 6 6 5 5 6 6 6 7 7 6 4 3 3 2 3 4 2 1 1 1 1 1 1 2 2 2 3
2 2 2 3 3 3 3 3 3 3 4 4 4 4 4 5 5 6 7 6 6 6 6 6 6 6 5 4 3 2 2 2 2 2 2 2 1 1 1 1 2 2 3 3
1 1 1 2 2 2 3 3 3 3 4 3 3 4 4 4 5 5 5 5 6 6 7 6 9 6 5 5 4 2 2 2 2 2 2 2 3 2 2 2 2 2 2 2
2 2 2 2 2 2 3 3 3 3 3 3 3 4 4 5 5 5 5 5 5 5 6 7 6 5 4 4 5 2 2 2 2 2 2 2 2 2 2 2 2 2 2 2
3 3 3 2 3 3 3 3 3 3 4 3 3 4 5 5 5 4 4 5 5 6 6 8 5 4 4 4 5 3 2 2 2 2 2 2 2 2 2 2 2 2 2 2
3 3 3 2 2 3 3 3 3 3 4 4 4 4 4 5 5 4 4 4 5 7 6 4 4 5 6 5 3 2 2 2 2 1 1 1 1 1 2 2 2 2 2 2
3 3 3 3 3 3 4 3 3 3 3 4 4 4 4 4 4 3 4 4 4 6 5 4 5 7 6 4 3 2 2 2 2 1 1 1 1 1 1 2 2 2 2 2
3 3 3 3 3 3 3 4 4 3 3 4 4 4 4 4 4 3 3 6 7 7 4 5 6 6 6 3 2 2 2 2 1 1 1 1 1 1 1 1 1 2 2 2
3 3 3 3 3 3 3 4 4 4 4 3 4 4 4 3 3 4 4 4 6 6 4 5 6 6 4 2 2 2 2 1 1 1 1 1 1 1 1 1 1 1 1 2
3 3 3 3 3 3 3 3 3 3 3 4 4 4 4 3 3 3 3 4 4 5 4 3 3 4 3 2 2 2 2 2 2 1 1 1 1 1 1 1 1 1 1 1
3 3 3 3 3 3 3 3 3 3 3 4 4 4 4 4 3 3 3 3 3 3 3 3 2 2 2 2 2 2 2 1 1 1 1 1 1 0 1 1 1 1 1 1
Wind_Direction
248 248 228 234 234 217 214 214 224 244 246 262 270 275 278 281 285 294 305 311 315 317 319 324 322 313 307 302 305 306 301 297 293 294 291 289 288 285 283 278 278 274 278 281
262 250 237 248 244 232 230 230 236 253 263 262 273 282 285 285 282 288 298 306 321 329 327 321 314 311 312 307 304 306 300 299 303 303 305 301 294 287 287 286 284 281 277 275
256 266 265 251 232 220 218 215 214 238 251 267 284 282 275 274 273 276 289 305 314 313 309 304 302 304 303 297 305 311 305 308 311 313 312 306 303 299 288 282 281 282 273 271
239 211 234 244 227 211 218 239 225 231 257 261 255 267 283 263 248 292 306 308 306 305 307 309 310 310 311 313 313 313 310 308 309 311 307 305 304 299 291 283 279 278 269 266
203 231 267 284 257 194 202 251 239 229 250 275 295 3 330 319 313 279 301 300 296 296 301 309 313 314 320 321 319 316 308 303 303 302 303 305 302 295 290 285 282 279 268 262
205 215 240 256 267 221 144 264 257 206 237 272 351 309 284 302 325 322 322 320 311 312 318 318 314 318 320 314 315 306 299 297 298 300 300 296 293 293 292 285 280 285 282 268
223 233 257 269 274 115 171 241 245 210 244 255 226 235 252 283 309 311 311 312 317 322 317 309 309 320 313 307 299 295 297 300 301 302 299 293 293 296 298 298 298 295 296 291
204 219 247 271 134 173 223 243 235 245 257 249 253 265 270 285 301 309 312 314 319 319 312 308 308 308 304 298 294 299 300 301 302 303 301 305 301 301 301 296 296 294 302 308
206 229 259 237 229 241 219 234 252 245 267 222 271 283 293 297 300 304 305 309 311 305 305 307 306 298 291 293 298 305 308 304 301 303 300 299 295 295 300 297 286 298 310 310
249 266 269 274 272 280 259 237 245 230 213 198 240 266 289 302 306 306 305 307 311 312 310 307 308 304 290 293 298 306 307 305 303 301 303 318 323 312 303 286 279 289 289 290
252 266 286 276 263 268 283 301 302 286 238 226 238 273 280 289 291 291 300 305 307 306 302 301 306 305 303 303 306 310 309 306 308 306 301 321 330 315 294 281 260 264 263 258
240 241 228 251 269 281 263 279 274 271 294 302 270 273 286 287 290 296 303 308 308 306 305 304 306 304 306 308 307 310 316 317 314 313 317 320 339 343 339 324 319 315 305 290
244 258 236 247 278 280 264 283 285 269 265 286 303 298 301 302 305 309 311 310 307 305 303 304 306 306 309 310 310 302 300 306 307 312 320 329 334 355 348 352 357 357 357 356
269 260 261 266 263 279 275 290 319 332 325 303 303 312 312 311 312 315 312 309 307 306 307 309 310 308 311 313 313 309 303 300 306 301 307 323 331 331 333 335 338 344 352 0
296 253 236 259 291 320 326 336 345 335 330 322 320 318 315 312 310 309 310 313 313 310 311 314 314 312 314 316 313 309 312 314 317 321 330 343 353 359 356 343 337 336 348 355
296 311 329 266 308 329 336 327 305 303 305 308 314 313 307 302 303 308 315 321 320 314 314 316 314 314 317 313 314 314 312 315 325 334 349 355 1 10 4 354 355 4 358 350
264 280 291 290 295 302 298 287 275 278 289 296 300 308 315 317 317 318 319 320 314 308 311 314 312 316 321 320 317 314 322 327 339 354 6 10 18 15 11 7 5 1 352 349
229 238 240 242 259 281 299 303 299 297 294 297 304 313 316 315 310 311 315 321 323 324 324 319 318 321 324 326 328 331 347 355 5 14 18 20 17 22 21 23 16 4 354 359
356 318 295 288 275 271 283 292 296 297 303 309 309 305 302 302 305 309 316 324 326 322 323 325 328 333 331 331 335 354 17 18 20 26 28 5 5 24 36 34 19 7 2 12
349 342 332 323 318 302 292 294 295 299 306 310 309 311 314 313 315 317 320 317 310 303 310 322 328 330 329 332 346 10 24 27 26 29 26 33 36 32 31 29 21 15 13 17
346 341 339 335 325 319 305 298 296 301 309 313 307 302 304 309 312 313 317 317 317 320 324 330 337 334 337 350 358 16 25 28 29 36 36 44 41 36 33 29 22 16 15 16
343 342 337 334 332 327 324 321 308 306 315 319 316 309 308 313 318 317 304 294 304 324 332 330 330 337 347 356 11 19 22 26 30 41 45 45 45 40 29 22 17 10 11 16
334 334 335 333 324 317 323 327 319 315 313 313 312 308 304 301 303 306 310 312 312 323 330 323 329 339 351 4 15 19 19 21 19 31 47 46 42 40 26 14 10 8 12 18
335 336 329 324 326 331 334 329 329 324 316 313 310 306 304 309 313 302 287 309 324 325 325 326 338 349 355 12 18 16 11 8 6 25 45 42 41 34 26 18 12 6 11 19
326 324 326 335 340 329 319 323 330 330 329 326 321 319 315 300 292 303 308 311 320 329 330 336 347 354 2 9 10 5 357 345 347 32 54 31 26 25 18 15 13 7 11 16
323 320 314 307 299 301 309 316 321 321 324 326 325 324 322 318 309 306 310 315 319 331 336 338 345 350 353 352 352 351 346 340 352 6 28 21 13 7 2 5 2 4 13 24
326 328 331 333 331 321 314 312 312 313 313 311 311 313 316 318 321 321 320 323 328 338 342 344 346 346 343 343 342 338 338 338 341 345 356 6 7 1 336 337 353 5 23 35
Height
1438 1436 1437 1437 1437 1438 1440 1439 1440 1432 1429 1421 1418 1418 1417 1416 1414 1412 1410 1409 1407 1405 1404 1402 1401 1399 1397 1395 1393 1391 1389 1386 1383 1380 1378 1375 1373 1371 1370 1369 1368 1367 1366 1365
1437 1433 1433 1433 1429 1430 1431 1430 1429 1426 1423 1416 1415 1415 1415 1413 1412 1410 1409 1407 1405 1404 1402 1401 1399 1397 1394 1392 1390 1388 1385 1382 1379 1376 1373 1371 1369 1367 1366 1365 1364 1363 1362 1361
1437 1432 1432 1429 1420 1421 1422 1420 1420 1420 1416 1412 1413 1413 1412 1410 1410 1409 1407 1406 1404 1402 1400 1398 1397 1394 1392 1389 1387 1384 1381 1378 1375 1372 1369 1367 1365 1363 1361 1360 1359 1358 1357 1356
1438 1436 1433 1417 1411 1412 1414 1413 1414 1413 1412 1411 1411 1410 1409 1408 1408 1407 1405 1404 1402 1400 1398 1396 1394 1392 1389 1386 1383 1381 1378 1375 1372 1369 1366 1364 1361 1359 1357 1356 1355 1353 1352 1352
1436 1435 1427 1416 1411 1410 1413 1412 1410 1411 1410 1409 1409 1408 1407 1407 1407 1406 1404 1402 1401 1399 1396 1393 1391 1388 1386 1383 1380 1378 1375 1371 1368 1366 1362 1360 1357 1355 1353 1351 1350 1349 1348 1348
1432 1431 1425 1413 1408 1406 1410 1413 1408 1408 1407 1407 1407 1410 1407 1405 1404 1403 1402 1400 1398 1396 1393 1391 1388 1385 1382 1379 1377 1374 1371 1368 1365 1363 1359 1356 1354 1351 1350 1348 1347 1346 1345 1345
1427 1426 1419 1410 1406 1406 1415 1413 1406 1405 1405 1405 1405 1406 1404 1403 1402 1401 1399 1398 1396 1393 1390 1388 1385 1382 1379 1376 1374 1371 1368 1365 1362 1359 1357 1354 1351 1349 1347 1345 1344 1343 1343 1342
1425 1424 1419 1407 1406 1409 1408 1404 1404 1403 1403 1403 1402 1402 1401 1400 1399 1398 1396 1394 1392 1390 1387 1385 1382 1379 1376 1373 1370 1368 1365 1362 1359 1356 1354 1352 1349 1347 1345 1343 1342 1341 1340 1339
1418 1415 1408 1405 1405 1404 1403 1403 1402 1402 1402 1401 1401 1400 1399 1398 1396 1395 1393 1391 1389 1387 1384 1381 1379 1376 1372 1370 1367 1364 1361 1358 1356 1353 1351 1349 1347 1345 1343 1341 1340 1339 1338 1337
1412 1407 1404 1403 1402 1402 1401 1401 1400 1400 1400 1400 1399 1398 1397 1395 1393 1391 1390 1388 1385 1383 1380 1377 1375 1372 1369 1366 1364 1361 1357 1355 1352 1350 1348 1346 1345 1343 1341 1339 1338 1337 1337 1336
1408 1404 1402 1400 1400 1400 1400 1400 1399 1398 1398 1397 1396 1395 1394 1392 1390 1388 1386 1384 1382 1379 1376 1373 1370 1368 1366 1363 1361 1358 1355 1353 1350 1348 1346 1345 1343 1342 1340 1339 1338 1337 1336 1336
1404 1400 1400 1399 1398 1398 1398 1397 1396 1396 1395 1394 1394 1392 1390 1389 1387 1385 1383 1380 1378 1375 1372 1369 1367 1364 1362 1360 1358 1356 1353 1351 1349 1347 1345 1343 1342 1340 1339 1338 1337 1336 1335 1335
1396 1396 1396 1396 1396 1395 1395 1395 1394 1393 1392 1391 1390 1389 1387 1385 1383 1381 1379 1377 1374 1371 1369 1366 1364 1361 1359 1357 1355 1353 1351 1349 1347 1345 1344 1342 1340 1339 1337 1337 1336 1335 1334 1333
1393 1393 1393 1393 1393 1393 1393 1392 1392 1391 1390 1388 1387 1386 1384 1382 1380 1378 1376 1373 1371 1368 1366 1364 1361 1359 1357 1355 1353 1351 1349 1348 1346 1344 1342 1341 1340 1338 1337 1335 1334 1333 1333 1332
1391 1391 1391 1391 1391 1390 1390 1390 1389 1388 1387 1386 1384 1383 1381 1379 1377 1375 1373 1370 1368 1365 1363 1361 1358 1356 1354 1352 1350 1349 1347 1346 1344 1343 1341 1340 1339 1337 1336 1335 1334 1332 1331 1331
1389 1389 1388 1388 1388 1388 1387 1387 1386 1385 1384 1382 1381 1379 1378 1376 1374 1372 1369 1367 1365 1362 1360 1358 1355 1353 1351 1350 1348 1346 1345 1344 1342 1341 1339 1338 1337 1336 1335 1334 1333 1332 1331 1331
1387 1386 1386 1386 1385 1385 1384 1384 1383 1382 1381 1379 1378 1376 1375 1373 1370 1368 1366 1364 1362 1360 1357 1355 1353 1351 1349 1347 1346 1344 1342 1341 1340 1339 1338 1337 1336 1335 1334 1334 1333 1332 1332 1332
1385 1384 1384 1384 1383 1382 1382 1381 1380 1379 1378 1376 1375 1373 1371 1369 1367 1365 1363 1361 1359 1356 1354 1352 1350 1348 1346 1344 1343 1342 1340 1339 1338 1337 1337 1336 1336 1335 1334 1333 1333 1332 1332 1332
1382 1382 1382 1381 1381 1380 1379 1378 1377 1375 1374 1373 1371 1370 1368 1367 1365 1362 1360 1358 1355 1353 1351 1350 1348 1346 1344 1342 1341 1340 1339 1337 1336 1336 1335 1335 1335 1334 1334 1333 1333 1332 1332 1332
1380 1380 1379 1379 1378 1377 1376 1375 1374 1372 1371 1370 1368 1367 1365 1363 1362 1359 1357 1355 1353 1351 1349 1347 1345 1343 1342 1341 1339 1338 1337 1336 1335 1335 1334 1334 1334 1334 1333 1333 1333 1332 1332 1332
1379 1378 1377 1376 1375 1374 1373 1372 1371 1369 1368 1367 1366 1364 1362 1360 1359 1357 1355 1353 1351 1350 1347 1346 1344 1342 1341 1340 1338 1337 1336 1335 1335 1334 1334 1334 1334 1334 1333 1333 1333 1333 1333 1332
1378 1377 1376 1374 1373 1372 1371 1370 1368 1367 1366 1364 1363 1361 1360 1358 1356 1354 1353 1352 1350 1348 1346 1344 1343 1341 1340 1339 1338 1336 1336 1335 1335 1335 1334 1334 1334 1334 1333 1333 1333 1333 1333 1333
1377 1376 1374 1373 1371 1370 1369 1368 1366 1365 1363 1362 1361 1359 1357 1356 1354 1352 1351 1350 1348 1347 1345 1343 1342 1341 1340 1338 1337 1336 1336 1335 1335 1335 1334 1334 1334 1334 1334 1333 1333 1333 1333 1333
1376 1375 1373 1372 1370 1369 1367 1366 1365 1363 1362 1360 1358 1357 1356 1354 1352 1351 1350 1348 1347 1345 1344 1342 1342 1340 1339 1338 1337 1336 1335 1335 1335 1335 1334 1334 1334 1334 1334 1334 1333 1333 1333 1333
1375 1374 1372 1370 1369 1367 1366 1364 1362 1361 1359 1358 1357 1355 1354 1353 1351 1349 1348 1347 1345 1344 1343 1342 1341 1340 1338 1337 1336 1336 1335 1335 1335 1334 1334 1334 1334 1334 1334 1334 1334 1334 1334 1334
1374 1372 1371 1369 1368 1366 1364 1363 1361 1359 1358 1356 1355 1354 1352 1351 1350 1348 1347 1345 1344 1343 1342 1341 1340 1339 1338 1337 1336 1335 1335 1335 1334 1334 1334 1334 1334 1334 1334 1334 1334 1334 1334 1334
1372 1371 1369 1368 1366 1365 1363 1361 1360 1358 1357 1355 1353 1352 1351 1350 1348 1347 1346 1344 1343 1342 1341 1340 1339 1338 1337 1336 1335 1335 1334 1334 1334 1334 1333 1333 1333 1333 1333 1334 1334 1334 1334 1335